When you browse on this site, cookies collect data to enhance your experience and personalize the content and advertising you see.
Visit our Privacy Policy to learn more. By continuing to use the site, you agree to this use of cookies and data.
  • En España
  • Lista de países
  • Para 7 días
  • Temperatura del agua
  • Mapa Satelital
  • El tiempo en el mapa
  • Informadores
  • user-avatar
    Iniciar sesión

    Tiempo cada hora Babny

    Hoy, 23 Mayo, Jueves

    Tiempo Temperatura Precipitaciones Viento Presión Humedad
    00:00 +14°C° 0 mm 0 mps 740 mmHg 88%
    01:00 +15°C° 0 mm 1 mps 740 mmHg 89%
    02:00 +14°C° 0 mm 1 mps 740 mmHg 89%
    03:00 +14°C° 0 mm 1 mps 740 mmHg 90%
    04:00 +15°C° 0 mm 1 mps 740 mmHg 90%
    05:00 +15°C° 0 mm 1 mps 740 mmHg 90%
    06:00 +16°C° 0 mm 1 mps 740 mmHg 85%
    07:00 +19°C° 0 mm 1 mps 740 mmHg 80%
    08:00 +20°C° 0 mm 2 mps 740 mmHg 75%
    09:00 +21°C° 0.2 mm 2 mps 740 mmHg 70%
    10:00 +23°C° 0.2 mm 2 mps 740 mmHg 64%
    11:00 +24°C° 0.2 mm 3 mps 740 mmHg 59%
    12:00 +25°C° 0.1 mm 3 mps 740 mmHg 57%
    13:00 +25°C° 0.1 mm 4 mps 740 mmHg 56%
    14:00 +26°C° 0.1 mm 4 mps 740 mmHg 54%
    15:00 +25°C° 0.3 mm 4 mps 739 mmHg 58%
    16:00 +25°C° 0.3 mm 3 mps 739 mmHg 61%
    17:00 +24°C° 0.3 mm 3 mps 739 mmHg 64%
    18:00 +21°C° 0.2 mm 2 mps 739 mmHg 71%
    19:00 +20°C° 0.2 mm 2 mps 739 mmHg 78%
    20:00 +19°C° 0.2 mm 1 mps 739 mmHg 85%
    21:00 +18°C° 0 mm 1 mps 739 mmHg 88%
    22:00 +18°C° 0 mm 1 mps 740 mmHg 90%
    23:00 +16°C° 0 mm 1 mps 740 mmHg 92%

    Mañana, 24 Mayo, Viernes

    Tiempo Temperatura Precipitaciones Viento Presión Humedad
    00:00 +16°C° 0.7 mm 1 mps 740 mmHg 93%
    01:00 +16°C° 0.7 mm 1 mps 740 mmHg 94%
    02:00 +15°C° 0.7 mm 1 mps 740 mmHg 95%
    03:00 +15°C° 0.2 mm 1 mps 740 mmHg 95%
    04:00 +16°C° 0.2 mm 1 mps 740 mmHg 96%
    05:00 +16°C° 0.2 mm 2 mps 741 mmHg 96%
    06:00 +16°C° 0 mm 2 mps 741 mmHg 95%
    07:00 +17°C° 0 mm 2 mps 741 mmHg 93%
    08:00 +17°C° 0 mm 3 mps 741 mmHg 91%
    09:00 +18°C° 0.1 mm 3 mps 741 mmHg 89%
    10:00 +18°C° 0.1 mm 3 mps 741 mmHg 86%
    11:00 +19°C° 0.1 mm 4 mps 741 mmHg 84%
    12:00 +19°C° 0.1 mm 4 mps 741 mmHg 83%
    13:00 +19°C° 0.1 mm 4 mps 741 mmHg 81%
    14:00 +20°C° 0.1 mm 4 mps 741 mmHg 79%
    15:00 +19°C° 0.1 mm 4 mps 741 mmHg 82%
    16:00 +19°C° 0.1 mm 3 mps 741 mmHg 84%
    17:00 +18°C° 0.1 mm 3 mps 741 mmHg 87%
    18:00 +18°C° 0.1 mm 3 mps 741 mmHg 89%
    19:00 +17°C° 0.1 mm 3 mps 741 mmHg 91%
    20:00 +17°C° 0.1 mm 3 mps 741 mmHg 93%
    21:00 +16°C° 0 mm 3 mps 740 mmHg 95%
    22:00 +16°C° 0 mm 3 mps 740 mmHg 96%
    23:00 +14°C° 0 mm 3 mps 740 mmHg 97%

    Pasado mañana, 25 Mayo, Sábado

    Tiempo Temperatura Precipitaciones Viento Presión Humedad
    00:00 +14°C° 0.9 mm 3 mps 740 mmHg 97%
    01:00 +15°C° 0.9 mm 2 mps 740 mmHg 97%
    02:00 +14°C° 0.9 mm 2 mps 740 mmHg 98%
    03:00 +14°C° 0.4 mm 2 mps 740 mmHg 98%
    04:00 +15°C° 0.4 mm 2 mps 739 mmHg 98%
    05:00 +15°C° 0.4 mm 2 mps 739 mmHg 98%
    06:00 +16°C° 0.2 mm 2 mps 739 mmHg 94%
    07:00 +17°C° 0.2 mm 2 mps 739 mmHg 90%
    08:00 +20°C° 0.2 mm 1 mps 739 mmHg 86%
    09:00 +21°C° 0.6 mm 1 mps 739 mmHg 82%
    10:00 +21°C° 0.6 mm 1 mps 739 mmHg 79%
    11:00 +22°C° 0.6 mm 1 mps 739 mmHg 75%
    12:00 +22°C° 0.6 mm 1 mps 738 mmHg 77%
    13:00 +22°C° 0.6 mm 1 mps 738 mmHg 79%
    14:00 +21°C° 0.6 mm 1 mps 738 mmHg 80%
    15:00 +21°C° 0.6 mm 1 mps 737 mmHg 83%
    16:00 +20°C° 0.6 mm 1 mps 737 mmHg 85%
    17:00 +20°C° 0.6 mm 1 mps 737 mmHg 88%
    18:00 +19°C° 0.3 mm 1 mps 737 mmHg 89%
    19:00 +18°C° 0.3 mm 1 mps 737 mmHg 91%
    20:00 +16°C° 0.3 mm 1 mps 736 mmHg 93%
    21:00 +15°C° 0 mm 2 mps 736 mmHg 93%
    22:00 +14°C° 0 mm 2 mps 736 mmHg 93%
    23:00 +14°C° 0 mm 2 mps 736 mmHg 93%

    26 Mayo, Domingo

    Tiempo Temperatura Precipitaciones Viento Presión Humedad
    00:00 +12°C° 0 mm 3 mps 736 mmHg 94%
    01:00 +11°C° 0 mm 3 mps 736 mmHg 95%
    02:00 +11°C° 0 mm 3 mps 737 mmHg 97%
    03:00 +10°C° 0 mm 3 mps 737 mmHg 96%
    04:00 +10°C° 0 mm 3 mps 737 mmHg 96%
    05:00 +9°C° 0 mm 3 mps 737 mmHg 95%
    06:00 +10°C° 0 mm 3 mps 737 mmHg 90%
    07:00 +11°C° 0 mm 3 mps 737 mmHg 85%
    08:00 +12°C° 0 mm 3 mps 737 mmHg 80%
    09:00 +13°C° 0 mm 4 mps 737 mmHg 74%
    10:00 +14°C° 0 mm 4 mps 737 mmHg 69%
    11:00 +17°C° 0 mm 4 mps 737 mmHg 64%
    12:00 +17°C° 0 mm 4 mps 737 mmHg 61%
    13:00 +18°C° 0 mm 4 mps 737 mmHg 59%
    14:00 +19°C° 0 mm 4 mps 737 mmHg 56%
    15:00 +18°C° 0.2 mm 4 mps 736 mmHg 62%
    16:00 +18°C° 0.2 mm 4 mps 736 mmHg 67%
    17:00 +17°C° 0.2 mm 4 mps 736 mmHg 73%
    18:00 +16°C° 0.7 mm 3 mps 736 mmHg 80%
    19:00 +13°C° 0.7 mm 3 mps 735 mmHg 87%
    20:00 +12°C° 0.7 mm 3 mps 735 mmHg 95%
    21:00 +11°C° 0.5 mm 3 mps 735 mmHg 94%
    22:00 +10°C° 0.5 mm 4 mps 735 mmHg 94%
    23:00 +8°C° 0.5 mm 4 mps 735 mmHg 94%

    27 Mayo, Lunes

    Tiempo Temperatura Precipitaciones Viento Presión Humedad
    00:00 +7°C° 0.1 mm 4 mps 735 mmHg 94%
    01:00 +7°C° 0.1 mm 4 mps 735 mmHg 94%
    02:00 +7°C° 0.1 mm 4 mps 736 mmHg 94%
    03:00 +7°C° 0.2 mm 4 mps 736 mmHg 94%
    04:00 +6°C° 0.2 mm 4 mps 736 mmHg 94%
    05:00 +6°C° 0.2 mm 5 mps 737 mmHg 94%
    06:00 +6°C° 0 mm 5 mps 737 mmHg 92%
    07:00 +6°C° 0 mm 5 mps 738 mmHg 89%
    08:00 +5°C° 0 mm 6 mps 738 mmHg 87%
    09:00 +8°C° 0 mm 6 mps 738 mmHg 82%
    10:00 +9°C° 0 mm 6 mps 739 mmHg 76%
    11:00 +10°C° 0 mm 6 mps 740 mmHg 71%
    12:00 +11°C° 0 mm 6 mps 740 mmHg 71%
    13:00 +11°C° 0 mm 6 mps 741 mmHg 70%
    14:00 +12°C° 0 mm 5 mps 741 mmHg 70%
    15:00 +13°C° 0 mm 5 mps 741 mmHg 70%
    16:00 +13°C° 0 mm 5 mps 742 mmHg 69%
    17:00 +14°C° 0 mm 4 mps 742 mmHg 68%
    18:00 +13°C° 0 mm 4 mps 742 mmHg 73%
    19:00 +12°C° 0 mm 3 mps 743 mmHg 78%
    20:00 +11°C° 0 mm 3 mps 743 mmHg 83%
    21:00 +10°C° 0 mm 3 mps 743 mmHg 87%
    22:00 +9°C° 0 mm 2 mps 744 mmHg 91%
    23:00 +8°C° 0 mm 2 mps 744 mmHg 95%

    28 Mayo, Martes

    Tiempo Temperatura Precipitaciones Viento Presión Humedad
    00:00 +8°C° 0 mm 2 mps 744 mmHg 95%
    01:00 +8°C° 0 mm 2 mps 744 mmHg 95%
    02:00 +8°C° 0 mm 2 mps 744 mmHg 96%
    03:00 +8°C° 0 mm 2 mps 744 mmHg 94%
    04:00 +9°C° 0 mm 3 mps 744 mmHg 93%
    05:00 +9°C° 0 mm 3 mps 744 mmHg 91%
    06:00 +11°C° 0 mm 3 mps 744 mmHg 85%
    07:00 +13°C° 0 mm 3 mps 744 mmHg 79%
    08:00 +15°C° 0 mm 4 mps 744 mmHg 73%
    09:00 +18°C° 0 mm 4 mps 744 mmHg 68%
    10:00 +19°C° 0 mm 4 mps 744 mmHg 63%
    11:00 +20°C° 0 mm 5 mps 744 mmHg 59%
    12:00 +19°C° 0.1 mm 5 mps 743 mmHg 64%
    13:00 +19°C° 0.1 mm 5 mps 743 mmHg 70%
    14:00 +17°C° 0.1 mm 5 mps 743 mmHg 75%
    15:00 +16°C° 1.4 mm 5 mps 742 mmHg 81%
    16:00 +15°C° 1.4 mm 5 mps 742 mmHg 88%
    17:00 +14°C° 1.4 mm 5 mps 741 mmHg 94%
    18:00 +15°C° 0.5 mm 5 mps 741 mmHg 93%
    19:00 +16°C° 0.5 mm 5 mps 740 mmHg 93%
    20:00 +16°C° 0.5 mm 5 mps 740 mmHg 93%
    21:00 +17°C° 0.7 mm 5 mps 740 mmHg 94%
    22:00 +17°C° 0.7 mm 5 mps 740 mmHg 94%
    23:00 +18°C° 0.7 mm 4 mps 740 mmHg 95%
    Mostrar más